Location: Kerb�bon
(47.7970°N, 3.3487°W)
Time: 12:53:02
(UTC+00:00)

Landsat 7 - Pass Details

Date: 12 May 2021
Orbit: 701 x 703 km, 98.0° (Epoch: 18 June)

Event Time Altitude Azimuth Distance (km) Brightness Sun altitude
Exits shadow 21:05:58 10° 173° (S) 2,155 5.9 -12.1°
Maximum altitude 21:10:40 70° 258° (WSW) 749 4.0 -12.7°
Drops below altitude 10° 21:15:27 10° 342° (NNW) 2,182 7.5 -13.2°
Sets 21:17:44 0° 345° (NNW) 3,105 8.4 -13.5°
